Time,TemperatureF,DewpointF,PressureIn,WindDirection,WindDirectionDegrees,WindSpeedMPH,WindSpeedGustMPH,Humidity,HourlyPrecipIn,Conditions,Clouds,dailyrainin,SolarRadiationWatts/m^2,SoftwareType,DateUTC
2013-01-07 00:00:00,28.0,28.0,-100.00,North,354,1.0,5.0,98,0.00,,,0.01,0.000000,,2013-01-07 08:00:00,
2013-01-07 00:22:00,28.0,28.0,-100.00,North,354,1.0,5.0,98,0.00,,,0.01,0.000000,,2013-01-07 08:22:00,
2013-01-07 00:33:00,28.0,28.0,-100.00,North,354,1.0,5.0,98,0.00,,,0.01,0.000000,,2013-01-07 08:33:00,
2013-01-07 00:43:00,28.0,28.0,-100.00,North,354,1.0,5.0,98,0.00,,,0.01,0.000000,,2013-01-07 08:43:00,
2013-01-07 00:53:00,28.0,28.0,-100.00,North,354,1.0,5.0,98,0.00,,,0.01,0.000000,,2013-01-07 08:53:00,
2013-01-07 01:00:00,27.0,26.0,-100.00,NE,55,2.0,9.0,94,0.00,,,0.01,0.000000,,2013-01-07 09:00:00,
2013-01-07 01:32:00,27.0,26.0,-100.00,NE,55,2.0,9.0,94,0.00,,,0.01,0.000000,,2013-01-07 09:32:00,
2013-01-07 01:42:00,27.0,26.0,-100.00,NE,55,2.0,9.0,94,0.00,,,0.01,0.000000,,2013-01-07 09:42:00,
2013-01-07 01:52:00,27.0,26.0,-100.00,NE,55,2.0,9.0,94,0.00,,,0.01,0.000000,,2013-01-07 09:52:00,
2013-01-07 02:00:00,27.0,24.0,-100.00,SSW,212,3.0,9.0,89,0.00,,,0.01,0.000000,,2013-01-07 10:00:00,
2013-01-07 02:33:00,27.0,24.0,-100.00,SSW,212,3.0,9.0,89,0.00,,,0.01,0.000000,,2013-01-07 10:33:00,
2013-01-07 02:42:00,27.0,24.0,-100.00,SSW,212,3.0,9.0,89,0.00,,,0.01,0.000000,,2013-01-07 10:42:00,
2013-01-07 02:52:00,27.0,24.0,-100.00,SSW,212,3.0,9.0,89,0.00,,,0.01,0.000000,,2013-01-07 10:52:00,
2013-01-07 03:00:00,30.0,17.0,-100.00,NE,37,8.0,14.0,58,0.00,,,0.01,0.000000,,2013-01-07 11:00:00,
2013-01-07 03:33:00,30.0,17.0,-100.00,NE,37,8.0,14.0,58,0.00,,,0.01,0.000000,,2013-01-07 11:33:00,
2013-01-07 03:43:00,30.0,17.0,-100.00,NE,37,8.0,14.0,58,0.00,,,0.01,0.000000,,2013-01-07 11:43:00,
2013-01-07 03:53:00,30.0,17.0,-100.00,NE,37,8.0,14.0,58,0.00,,,0.01,0.000000,,2013-01-07 11:53:00,
2013-01-07 04:00:00,31.0,14.0,-100.00,NW,324,3.0,24.0,48,0.00,,,0.01,0.000000,,2013-01-07 12:00:00,
2013-01-07 04:23:00,31.0,14.0,-100.00,NW,324,3.0,24.0,48,0.00,,,0.01,0.000000,,2013-01-07 12:23:00,
2013-01-07 04:33:00,31.0,14.0,-100.00,NW,324,3.0,24.0,48,0.00,,,0.01,0.000000,,2013-01-07 12:33:00,
2013-01-07 04:43:00,31.0,14.0,-100.00,NW,324,3.0,24.0,48,0.00,,,0.01,0.000000,,2013-01-07 12:43:00,
2013-01-07 04:53:00,31.0,14.0,-100.00,NW,324,3.0,24.0,48,0.00,,,0.01,0.000000,,2013-01-07 12:53:00,
2013-01-07 05:00:00,26.0,25.0,-100.00,North,7,2.0,13.0,94,0.00,,,0.01,0.000000,,2013-01-07 13:00:00,
2013-01-07 05:23:00,26.0,25.0,-100.00,North,7,2.0,13.0,94,0.00,,,0.01,0.000000,,2013-01-07 13:23:00,
2013-01-07 05:33:00,26.0,25.0,-100.00,North,7,2.0,13.0,94,0.00,,,0.01,0.000000,,2013-01-07 13:33:00,
2013-01-07 05:43:00,26.0,25.0,-100.00,North,7,2.0,13.0,94,0.00,,,0.01,0.000000,,2013-01-07 13:43:00,
2013-01-07 05:53:00,26.0,25.0,-100.00,North,7,2.0,13.0,94,0.00,,,0.01,0.000000,,2013-01-07 13:53:00,
2013-01-07 06:00:00,26.0,25.0,-100.00,ENE,71,3.0,9.0,97,0.00,,,0.01,0.000000,,2013-01-07 14:00:00,
2013-01-07 06:33:00,26.0,25.0,-100.00,ENE,71,3.0,9.0,97,0.00,,,0.01,0.000000,,2013-01-07 14:33:00,
2013-01-07 06:43:00,26.0,25.0,-100.00,ENE,71,3.0,9.0,97,0.00,,,0.01,0.000000,,2013-01-07 14:43:00,
2013-01-07 06:53:00,26.0,25.0,-100.00,ENE,71,3.0,9.0,97,0.00,,,0.01,0.000000,,2013-01-07 14:53:00,
2013-01-07 07:00:00,26.0,25.0,-100.00,NNE,12,2.0,7.0,97,0.00,,,0.01,0.000000,,2013-01-07 15:00:00,
2013-01-07 07:23:00,26.0,25.0,-100.00,NNE,12,2.0,7.0,97,0.00,,,0.01,0.000000,,2013-01-07 15:23:00,
2013-01-07 07:33:00,26.0,25.0,-100.00,NNE,12,2.0,7.0,97,0.00,,,0.01,0.000000,,2013-01-07 15:33:00,
2013-01-07 07:43:00,26.0,25.0,-100.00,NNE,12,2.0,7.0,97,0.00,,,0.01,0.000000,,2013-01-07 15:43:00,
2013-01-07 07:53:00,26.0,25.0,-100.00,NNE,12,2.0,7.0,97,0.00,,,0.01,0.000000,,2013-01-07 15:53:00,
2013-01-07 08:00:00,27.0,26.0,-100.00,NNW,347,1.0,4.0,97,0.00,,,0.01,24.000000,,2013-01-07 16:00:00,
2013-01-07 08:33:00,27.0,26.0,-100.00,NNW,347,1.0,4.0,97,0.00,,,0.01,24.000000,,2013-01-07 16:33:00,
2013-01-07 08:43:00,27.0,26.0,-100.00,NNW,347,1.0,4.0,97,0.00,,,0.01,24.000000,,2013-01-07 16:43:00,
2013-01-07 08:53:00,27.0,26.0,-100.00,NNW,347,1.0,4.0,97,0.00,,,0.01,24.000000,,2013-01-07 16:53:00,
2013-01-07 09:00:00,29.0,28.0,-100.00,East,79,2.0,7.0,96,0.00,,,0.01,126.000000,,2013-01-07 17:00:00,
2013-01-07 09:23:00,29.0,28.0,-100.00,East,79,2.0,7.0,96,0.00,,,0.01,126.000000,,2013-01-07 17:23:00,
2013-01-07 09:33:00,29.0,28.0,-100.00,East,79,2.0,7.0,96,0.00,,,0.01,126.000000,,2013-01-07 17:33:00,
2013-01-07 09:42:00,29.0,28.0,-100.00,East,79,2.0,7.0,96,0.00,,,0.01,126.000000,,2013-01-07 17:42:00,
2013-01-07 09:53:00,29.0,28.0,-100.00,East,79,2.0,7.0,96,0.00,,,0.01,126.000000,,2013-01-07 17:53:00,
2013-01-07 10:00:00,41.0,29.0,-100.00,WNW,288,1.0,6.0,61,0.00,,,0.01,385.000000,,2013-01-07 18:00:00,
2013-01-07 10:33:00,41.0,29.0,-100.00,WNW,288,1.0,6.0,61,0.00,,,0.01,385.000000,,2013-01-07 18:33:00,
2013-01-07 10:43:00,41.0,29.0,-100.00,WNW,288,1.0,6.0,61,0.00,,,0.01,385.000000,,2013-01-07 18:43:00,
2013-01-07 10:53:00,41.0,29.0,-100.00,WNW,288,1.0,6.0,61,0.00,,,0.01,385.000000,,2013-01-07 18:53:00,
2013-01-07 11:33:00,50.0,21.0,-100.00,ESE,113,1.0,8.0,31,0.00,,,0.00,582.000000,,2013-01-07 19:33:00,
2013-01-07 11:43:00,50.0,21.0,-100.00,ESE,113,1.0,8.0,31,0.00,,,0.00,582.000000,,2013-01-07 19:43:00,
2013-01-07 11:53:00,50.0,21.0,-100.00,ESE,113,1.0,8.0,31,0.00,,,0.00,582.000000,,2013-01-07 19:53:00,
2013-01-07 12:00:00,42.0,25.0,-100.00,ENE,60,3.0,19.0,50,0.00,,,0.00,654.000000,,2013-01-07 20:00:00,
2013-01-07 12:33:00,42.0,25.0,-100.00,ENE,60,3.0,19.0,50,0.00,,,0.00,654.000000,,2013-01-07 20:33:00,
2013-01-07 12:43:00,42.0,25.0,-100.00,ENE,60,3.0,19.0,50,0.00,,,0.00,654.000000,,2013-01-07 20:43:00,
2013-01-07 12:53:00,42.0,25.0,-100.00,ENE,60,3.0,19.0,50,0.00,,,0.00,654.000000,,2013-01-07 20:53:00,
2013-01-07 13:00:00,49.0,23.0,-100.00,WSW,248,2.0,8.0,36,0.00,,,0.00,566.000000,,2013-01-07 21:00:00,
2013-01-07 13:23:00,49.0,23.0,-100.00,WSW,248,2.0,8.0,36,0.00,,,0.00,566.000000,,2013-01-07 21:23:00,
2013-01-07 13:33:00,49.0,23.0,-100.00,WSW,248,2.0,8.0,36,0.00,,,0.00,566.000000,,2013-01-07 21:33:00,
2013-01-07 13:43:00,49.0,23.0,-100.00,WSW,248,2.0,8.0,36,0.00,,,0.00,566.000000,,2013-01-07 21:43:00,
2013-01-07 13:53:00,49.0,23.0,-100.00,WSW,248,2.0,8.0,36,0.00,,,0.00,566.000000,,2013-01-07 21:53:00,
2013-01-07 14:00:00,48.0,25.0,-100.00,North,357,1.0,7.0,40,0.00,,,0.00,592.000000,,2013-01-07 22:00:00,
2013-01-07 14:23:00,48.0,25.0,-100.00,North,357,1.0,7.0,40,0.00,,,0.00,592.000000,,2013-01-07 22:23:00,
2013-01-07 14:33:00,48.0,25.0,-100.00,North,357,1.0,7.0,40,0.00,,,0.00,592.000000,,2013-01-07 22:33:00,
2013-01-07 14:43:00,48.0,25.0,-100.00,North,357,1.0,7.0,40,0.00,,,0.00,592.000000,,2013-01-07 22:43:00,
2013-01-07 14:53:00,48.0,25.0,-100.00,North,357,1.0,7.0,40,0.00,,,0.00,592.000000,,2013-01-07 22:53:00,
2013-01-07 15:00:00,42.0,23.0,-100.00,ENE,66,2.0,6.0,46,0.00,,,0.00,281.000000,,2013-01-07 23:00:00,
2013-01-07 15:33:00,42.0,23.0,-100.00,ENE,66,2.0,6.0,46,0.00,,,0.00,281.000000,,2013-01-07 23:33:00,
2013-01-07 15:43:00,42.0,23.0,-100.00,ENE,66,2.0,6.0,46,0.00,,,0.00,281.000000,,2013-01-07 23:43:00,
2013-01-07 15:53:00,42.0,23.0,-100.00,ENE,66,2.0,6.0,46,0.00,,,0.00,281.000000,,2013-01-07 23:53:00,
2013-01-07 16:00:00,41.0,20.0,-100.00,SW,235,2.0,6.0,43,0.00,,,0.00,200.000000,,2013-01-08 00:00:00,
2013-01-07 16:23:00,41.0,20.0,-100.00,SW,235,2.0,6.0,43,0.00,,,0.00,200.000000,,2013-01-08 00:23:00,
2013-01-07 16:33:00,41.0,20.0,-100.00,SW,235,2.0,6.0,43,0.00,,,0.00,200.000000,,2013-01-08 00:33:00,
2013-01-07 16:43:00,41.0,20.0,-100.00,SW,235,2.0,6.0,43,0.00,,,0.00,200.000000,,2013-01-08 00:43:00,
2013-01-07 16:52:00,41.0,20.0,-100.00,SW,235,2.0,6.0,43,0.00,,,0.00,200.000000,,2013-01-08 00:52:00,
2013-01-07 17:00:00,40.0,13.0,-100.00,NW,324,1.0,6.0,32,0.00,,,0.00,35.000000,,2013-01-08 01:00:00,
2013-01-07 17:22:00,40.0,13.0,-100.00,NW,324,1.0,6.0,32,0.00,,,0.00,35.000000,,2013-01-08 01:22:00,
2013-01-07 17:33:00,40.0,13.0,-100.00,NW,324,1.0,6.0,32,0.00,,,0.00,35.000000,,2013-01-08 01:33:00,
2013-01-07 17:42:00,40.0,13.0,-100.00,NW,324,1.0,6.0,32,0.00,,,0.00,35.000000,,2013-01-08 01:42:00,
2013-01-07 17:52:00,40.0,13.0,-100.00,NW,324,1.0,6.0,32,0.00,,,0.00,35.000000,,2013-01-08 01:52:00,
2013-01-07 18:00:00,39.0,12.0,-100.00,NE,50,2.0,6.0,33,0.00,,,0.00,0.000000,,2013-01-08 02:00:00,
2013-01-07 18:22:00,39.0,12.0,-100.00,NE,50,2.0,6.0,33,0.00,,,0.00,0.000000,,2013-01-08 02:22:00,
2013-01-07 18:33:00,39.0,12.0,-100.00,NE,50,2.0,6.0,33,0.00,,,0.00,0.000000,,2013-01-08 02:33:00,
2013-01-07 18:43:00,39.0,12.0,-100.00,NE,50,2.0,6.0,33,0.00,,,0.00,0.000000,,2013-01-08 02:43:00,
2013-01-07 18:53:00,39.0,12.0,-100.00,NE,50,2.0,6.0,33,0.00,,,0.00,0.000000,,2013-01-08 02:53:00,
2013-01-07 19:00:00,41.0,9.0,-100.00,WSW,248,4.0,11.0,26,0.00,,,0.00,0.000000,,2013-01-08 03:00:00,
2013-01-07 19:33:00,41.0,9.0,-100.00,WSW,248,4.0,11.0,26,0.00,,,0.00,0.000000,,2013-01-08 03:33:00,
2013-01-07 19:43:00,41.0,9.0,-100.00,WSW,248,4.0,11.0,26,0.00,,,0.00,0.000000,,2013-01-08 03:43:00,
2013-01-07 19:53:00,41.0,9.0,-100.00,WSW,248,4.0,11.0,26,0.00,,,0.00,0.000000,,2013-01-08 03:53:00,
2013-01-07 20:00:00,41.0,13.0,-100.00,East,86,2.0,7.0,31,0.00,,,0.00,0.000000,,2013-01-08 04:00:00,
2013-01-07 20:32:00,41.0,13.0,-100.00,East,86,2.0,7.0,31,0.00,,,0.00,0.000000,,2013-01-08 04:32:00,
2013-01-07 20:43:00,41.0,13.0,-100.00,East,86,2.0,7.0,31,0.00,,,0.00,0.000000,,2013-01-08 04:43:00,
2013-01-07 20:52:00,41.0,13.0,-100.00,East,86,2.0,7.0,31,0.00,,,0.00,0.000000,,2013-01-08 04:52:00,
2013-01-07 21:00:00,46.0,19.0,-100.00,NE,45,4.0,12.0,33,0.00,,,0.00,0.000000,,2013-01-08 05:00:00,
2013-01-07 21:22:00,46.0,19.0,-100.00,NE,45,4.0,12.0,33,0.00,,,0.00,0.000000,,2013-01-08 05:22:00,
2013-01-07 21:33:00,46.0,19.0,-100.00,NE,45,4.0,12.0,33,0.00,,,0.00,0.000000,,2013-01-08 05:33:00,
2013-01-07 21:43:00,46.0,19.0,-100.00,NE,45,4.0,12.0,33,0.00,,,0.00,0.000000,,2013-01-08 05:43:00,
2013-01-07 21:53:00,46.0,19.0,-100.00,NE,45,4.0,12.0,33,0.00,,,0.00,0.000000,,2013-01-08 05:53:00,
2013-01-07 22:00:00,46.0,21.0,-100.00,East,94,2.0,17.0,37,0.00,,,0.00,0.000000,,2013-01-08 06:00:00,
2013-01-07 22:22:00,46.0,21.0,-100.00,East,94,2.0,17.0,37,0.00,,,0.00,0.000000,,2013-01-08 06:22:00,
2013-01-07 22:33:00,46.0,21.0,-100.00,East,94,2.0,17.0,37,0.00,,,0.00,0.000000,,2013-01-08 06:33:00,
2013-01-07 22:42:00,46.0,21.0,-100.00,East,94,2.0,17.0,37,0.00,,,0.00,0.000000,,2013-01-08 06:42:00,
2013-01-07 22:52:00,46.0,21.0,-100.00,East,94,2.0,17.0,37,0.00,,,0.00,0.000000,,2013-01-08 06:52:00,
2013-01-07 23:00:00,46.0,21.0,-100.00,WNW,300,2.0,9.0,37,0.00,,,0.00,0.000000,,2013-01-08 07:00:00,
2013-01-07 23:32:00,46.0,21.0,-100.00,WNW,300,2.0,9.0,37,0.00,,,0.00,0.000000,,2013-01-08 07:32:00,
2013-01-07 23:42:00,46.0,21.0,-100.00,WNW,300,2.0,9.0,37,0.00,,,0.00,0.000000,,2013-01-08 07:42:00,
2013-01-07 23:52:00,46.0,21.0,-100.00,WNW,300,2.0,9.0,37,0.00,,,0.00,0.000000,,2013-01-08 07:52:00,